Location: Newark
(13.6797°N, 8.5297°E)
Time: 17:33:01
(UTC+00:00)

A-11 Canister half - Pass Details

Date: 22 January 2020
Orbit: 1517 x 1683 km, 47.2° (Epoch: 21 February)

Event Time Altitude Azimuth Distance (km) Brightness Sun altitude
Rises 23:21:39 0° 259° (W) 4,772 - -83.0°
Reaches altitude 10° 23:25:40 10° 273° (W) 3,759 - -83.4°
Maximum altitude 23:32:45 23° 322° (NW) 2,813 - -84.0°
Drops below altitude 10° 23:39:45 10° 12° (NNE) 3,685 - -84.0°
Sets 23:43:41 0° 26° (NNE) 4,657 - -83.9°
